Weather History for KVER - July, 2013

Change the Weather History Date:

Saturday, July 13, 2013

  Actual Average Record
Temperature  
Mean Temperature 71 °F -  
Max Temperature 96 °F 90 °F 107 °F (1954)
Min Temperature 61 °F 69 °F 53 °F (1975)
Cooling Degree Days 6    
Growing Degree Days 21 (Base 50)    
Moisture  
Dew Point 60 °F    
Average Humidity 70    
Maximum Humidity 91    
Minimum Humidity 45    
Precipitation  
Precipitation 0.00 in - - ()
Sea Level Pressure  
Sea Level Pressure 30.06 in    
Wind  
Wind Speed 5 mph (ESE)    
Max Wind Speed 10 mph    
Max Gust Speed -    
Visibility 10 miles    
Events      
Averages and records for this station are not official NWS values.
T = Trace of Precipitation, MM = Missing Value Source: NWS Daily Summary

Daily Weather History Graph

Daily Weather History Graph

Search for Another Location

Airport or City:

Trip Planner

Search our weather history database for the weather conditions in past years. The results will help you decide how hot, cold, wet, or windy it might be!

Date:

Astronomy

Jul. 13, 2013 Rise Set
Actual Time 5:56 AM CDT 8:36 PM CDT
Civil Twilight 5:25 AM CDT 9:07 PM CDT
Nautical Twilight 4:45 AM CDT 9:46 PM CDT
Astronomical Twilight 4:01 AM CDT 10:30 PM CDT
Moon 11:09 AM CDT (7/13) 11:20 PM CDT (7/13)
Length of Visible Light 15h 42m
Length of Day
14h 40m
Waxing Crescent, 26% of the Moon is Illuminated
Jul 13
Waxing Crescent
Jul 15
First Quarter
Jul 22
Full
Jul 29
Last Quarter
Aug 6
New

Hourly Weather History & Observations

Time (CDT) Temp. Heat Index Dew Point Humidity Pressure Visibility Wind Dir Wind Speed Gust Speed Precip Events Conditions
12:15 AM 68.0 °F - 58.1 °F 71% 30.05 in 10.0 mi ESE 5.8 mph - N/A   Clear
12:35 AM 67.6 °F - 57.7 °F 71% 30.05 in 10.0 mi ESE 6.9 mph - N/A   Clear
12:55 AM 67.3 °F - 58.1 °F 72% 30.05 in 10.0 mi ESE 5.8 mph - N/A   Clear
1:15 AM 66.6 °F - 57.9 °F 74% 30.05 in 10.0 mi SE 4.6 mph - N/A   Clear
1:35 AM 65.3 °F - 57.9 °F 77% 30.06 in 10.0 mi ESE 3.5 mph - N/A   Clear
1:55 AM 65.3 °F - 57.6 °F 76% 30.06 in 10.0 mi ESE 3.5 mph - N/A   Clear
2:15 AM 64.9 °F - 57.6 °F 77% 30.06 in 10.0 mi SE 4.6 mph - N/A   Clear
2:35 AM 64.2 °F - 57.6 °F 79% 30.07 in 10.0 mi ESE 3.5 mph - N/A   Clear
2:55 AM 64.0 °F - 57.2 °F 78% 30.06 in 10.0 mi ESE 5.8 mph - N/A   Clear
3:15 AM 63.1 °F - 57.2 °F 81% 30.07 in 10.0 mi SE 4.6 mph - N/A   Clear
3:35 AM 63.0 °F - 57.2 °F 81% 30.06 in 10.0 mi SE 4.6 mph - N/A   Clear
3:55 AM 62.2 °F - 57.7 °F 85% 30.07 in 10.0 mi SE 4.6 mph - N/A   Clear
4:15 AM 61.9 °F - 58.1 °F 87% 30.06 in 10.0 mi SE 4.6 mph - N/A   Clear
4:35 AM 61.3 °F - 58.1 °F 89% 30.06 in 10.0 mi Calm Calm - N/A   Clear
4:55 AM 61.0 °F - 58.5 °F 91% 30.05 in 10.0 mi SE 3.5 mph - N/A   Clear
5:15 AM 61.0 °F - 58.3 °F 91% 30.06 in 10.0 mi ESE 4.6 mph - N/A   Clear
5:35 AM 61.3 °F - 58.3 °F 90% 30.07 in 10.0 mi ESE 4.6 mph - N/A   Clear
5:55 AM 61.0 °F - 58.3 °F 91% 30.07 in 10.0 mi ESE 4.6 mph - N/A   Clear
6:15 AM 61.0 °F - 58.5 °F 91% 30.07 in 10.0 mi SE 3.5 mph - N/A   Clear
6:35 AM 61.3 °F - 58.8 °F 91% 30.08 in 10.0 mi Calm Calm - N/A   Clear
6:55 AM 63.0 °F - 59.9 °F 90% 30.08 in 10.0 mi Calm Calm - N/A   Clear
7:15 AM 64.8 °F - 61.0 °F 88% 30.09 in 10.0 mi Calm Calm - N/A   Clear
7:35 AM 65.7 °F - 60.4 °F 83% 30.08 in 10.0 mi ESE 3.5 mph - N/A   Clear
7:55 AM 66.9 °F - 59.9 °F 78% 30.09 in 10.0 mi SE 4.6 mph - N/A   Clear
8:15 AM 67.3 °F - 59.7 °F 77% 30.09 in 10.0 mi SE 4.6 mph - N/A   Clear
8:35 AM 68.5 °F - 60.3 °F 75% 30.10 in 10.0 mi ESE 4.6 mph - N/A   Clear
8:55 AM 70.0 °F - 60.8 °F 73% 30.10 in 10.0 mi SE 3.5 mph - N/A   Clear
9:15 AM 71.4 °F - 60.4 °F 68% 30.11 in 10.0 mi SSE 4.6 mph - N/A   Clear
9:35 AM 73.0 °F - 61.2 °F 66% 30.11 in 10.0 mi SSE 4.6 mph - N/A   Clear
9:55 AM 75.0 °F - 60.4 °F 60% 30.10 in 10.0 mi SSE 4.6 mph - N/A   Clear
10:15 AM 77.0 °F - 59.5 °F 55% 30.10 in 10.0 mi SE 10.4 mph - N/A   Clear
10:35 AM 77.4 °F - 57.9 °F 51% 30.10 in 10.0 mi SSE 9.2 mph - N/A   Clear
10:55 AM 78.1 °F - 59.0 °F 52% 30.10 in 10.0 mi SSE 6.9 mph - N/A   Clear
11:15 AM 79.0 °F - 59.5 °F 51% 30.10 in 10.0 mi SSE 6.9 mph - N/A   Clear
11:35 AM 79.5 °F - 58.6 °F 49% 30.09 in 10.0 mi SSE 5.8 mph - N/A   Clear
11:55 AM 80.6 °F 80.8 °F 57.7 °F 45% 30.09 in 10.0 mi SE 5.8 mph - N/A   Clear
12:15 PM 81.5 °F 81.7 °F 58.8 °F 46% 30.08 in 10.0 mi ESE 4.6 mph - N/A   Clear
12:35 PM 81.5 °F 81.6 °F 58.1 °F 45% 30.08 in 10.0 mi SE 4.6 mph - N/A   Clear
12:55 PM 80.8 °F 81.1 °F 57.9 °F 46% 30.07 in 10.0 mi SE 5.8 mph - N/A   Clear
1:15 PM 80.6 °F 81.2 °F 59.5 °F 49% 30.07 in 10.0 mi ESE 5.8 mph - N/A   Clear
1:35 PM 80.6 °F 81.1 °F 59.0 °F 48% 30.07 in 10.0 mi ESE 4.6 mph - N/A   Clear
1:55 PM 81.0 °F 81.5 °F 59.7 °F 48% 30.08 in 10.0 mi ENE 6.9 mph - N/A   Clear
2:15 PM 80.6 °F 81.4 °F 60.3 °F 50% 30.07 in 10.0 mi ENE 5.8 mph - N/A   Clear
2:35 PM 81.0 °F 81.5 °F 59.7 °F 48% 30.06 in 10.0 mi East 6.9 mph - N/A   Clear
2:55 PM 80.8 °F 81.3 °F 59.2 °F 48% 30.06 in 10.0 mi ESE 6.9 mph - N/A   Clear
3:15 PM 80.4 °F 81.2 °F 60.4 °F 50% 30.06 in 10.0 mi East 8.1 mph - N/A   Clear
3:35 PM 80.4 °F 81.3 °F 60.6 °F 51% 30.06 in 10.0 mi East 5.8 mph - N/A   Clear
3:55 PM 80.4 °F 81.4 °F 61.3 °F 52% 30.05 in 10.0 mi East 8.1 mph - N/A   Clear
4:15 PM 80.4 °F 81.3 °F 60.8 °F 51% 30.05 in 10.0 mi East 8.1 mph - N/A   Clear
4:35 PM 80.2 °F 81.1 °F 60.6 °F 51% 30.05 in 10.0 mi ESE 4.6 mph - N/A   Clear
4:55 PM 79.0 °F - 61.7 °F 55% 30.05 in 10.0 mi East 4.6 mph - N/A   Clear
5:15 PM 78.4 °F - 62.4 °F 58% 30.05 in 10.0 mi East 3.5 mph - N/A   Clear
5:35 PM 77.7 °F - 62.6 °F 60% 30.05 in 10.0 mi East 3.5 mph - N/A   Clear
5:55 PM 77.2 °F - 63.0 °F 61% 30.03 in 10.0 mi East 3.5 mph - N/A   Clear
6:15 PM 76.5 °F - 63.3 °F 64% 30.02 in 10.0 mi SSE 4.6 mph - N/A   Clear
6:35 PM 75.7 °F - 63.9 °F 66% 30.03 in 10.0 mi SE 4.6 mph - N/A   Scattered Clouds
6:55 PM 75.4 °F - 64.2 °F 68% 30.02 in 10.0 mi ESE 3.5 mph - N/A   Mostly Cloudy
7:15 PM 75.4 °F - 63.9 °F 67% 30.03 in 10.0 mi East 3.5 mph - N/A   Scattered Clouds
7:35 PM 74.7 °F - 63.9 °F 69% 30.01 in 10.0 mi East 5.8 mph - N/A   Clear
7:55 PM 74.5 °F - 63.1 °F 68% 30.03 in 10.0 mi Calm Calm - N/A   Clear
8:15 PM 73.9 °F - 63.9 °F 71% 30.02 in 10.0 mi ENE 3.5 mph - N/A   Scattered Clouds
8:35 PM 73.4 °F - 63.9 °F 72% 30.03 in 10.0 mi Calm Calm - N/A   Clear
8:55 PM 72.7 °F - 63.7 °F 73% 30.03 in 10.0 mi Calm Calm - N/A   Clear
9:15 PM 71.4 °F - 63.9 °F 77% 30.03 in 10.0 mi Calm Calm - N/A   Clear
9:35 PM 69.8 °F - 63.9 °F 81% 30.05 in 10.0 mi Calm Calm - N/A   Clear
9:55 PM 68.9 °F - 63.7 °F 83% 30.05 in 10.0 mi Calm Calm - N/A   Clear
10:15 PM 67.8 °F - 64.8 °F 90% 30.05 in 10.0 mi NNE 3.5 mph - N/A   Clear
10:35 PM 67.8 °F - 64.9 °F 90% 30.06 in 10.0 mi Calm Calm - N/A   Clear
10:55 PM 67.5 °F - 64.8 °F 91% 30.05 in 10.0 mi East 4.6 mph - N/A   Clear
11:15 PM 67.1 °F - 64.4 °F 91% 30.05 in 10.0 mi Calm Calm - N/A   Clear
11:35 PM 66.7 °F - 64.0 °F 91% 30.05 in 10.0 mi East 4.6 mph - N/A   Clear
11:55 PM 67.8 °F - 63.7 °F 87% 30.05 in 10.0 mi East 4.6 mph - N/A   Clear